Flint, MI

5:04 AM EDT on May 26, 2018 (GMT -0400)
Bishop International

Weather History for KFNT - November, 2010

Change the Weather History Date:

Thursday, November 4, 2010

  Actual Average Record
Temperature  
Mean Temperature 38 °F 43 °F  
Max Temperature 47 °F 52 °F 80 °F (2015)
Min Temperature 29 °F 35 °F 18 °F (1951)
Degree Days  
Heating Degree Days 27 22  
Month to date heating degree days 118 85  
Since 1 July heating degree days 664 781  
Cooling Degree Days 0 0  
Month to date cooling degree days 0 0  
Year to date cooling degree days 861 531  
Moisture  
Dew Point 34 °F    
Average Humidity 80    
Maximum Humidity 92    
Minimum Humidity 67    
Precipitation  
Precipitation 0.04 in 0.08 in 1.34 in (1935)
Month to date precipitation 0.04 0.36  
Year to date precipitation 22.47 27.14  
Snow  
Snow 0.00 in 0.00 in 1.80 in (1950)
Month to date snowfall 0.0 0.1  
Since 1 July snowfall 0.0 0.5  
Since 1 September snowfall 0.0 0.5  
Snow Depth 0.00 in    
Sea Level Pressure  
Sea Level Pressure 29.74 in    
Wind  
Wind Speed 8 mph (NNW)    
Max Wind Speed 20 mph    
Max Gust Speed 28 mph    
Visibility 8 miles    
Events Rain    
T = Trace of Precipitation, MM = Missing Value Source: NWS Daily Summary

Daily Weather History Graph

Daily Weather History Graph

Search for Another Location

Airport or City:

Astronomy

Nov. 04, 2010 Rise Set
Actual Time 8:13 AM EDT 6:23 PM EDT
Civil Twilight 7:43 AM EDT 6:52 PM EDT
Nautical Twilight 7:09 AM EDT 7:26 PM EDT
Astronomical Twilight 6:36 AM EDT 7:59 PM EDT
Moon 6:22 AM EDT (11/4) 5:07 PM EDT (11/4)
Length of Visible Light 11h 09m
Length of Day
10h 10m
Waning Crescent, 3% of the Moon is Illuminated
Nov 4
Waning Crescent
Nov 6
New
Nov 13
First Quarter
Nov 21
Full
Nov 28
Last Quarter

Hourly Weather History & Observations

Time (EDT) Temp. Windchill Dew Point Humidity Pressure Visibility Wind Dir Wind Speed Gust Speed Precip Events Conditions
12:53 AM 39.0 °F 35.7 °F 30.9 °F 73% 29.79 in 10.0 mi SW 4.6 mph - N/A   Clear
1:53 AM 37.9 °F - 30.0 °F 73% 29.78 in 10.0 mi Calm Calm - N/A   Clear
2:53 AM 37.0 °F - 30.0 °F 76% 29.75 in 10.0 mi Calm Calm - N/A   Mostly Cloudy
3:53 AM 32.0 °F - 28.0 °F 85% 29.74 in 8.0 mi Calm Calm - N/A   Clear
4:53 AM 32.0 °F - 28.9 °F 88% 29.73 in 8.0 mi Calm Calm - N/A   Overcast
5:53 AM 34.0 °F 29.8 °F 30.9 °F 89% 29.73 in 7.0 mi WSW 4.6 mph - N/A   Overcast
6:13 AM 35.6 °F - 33.8 °F 93% 29.71 in 3.0 mi Calm Calm - 0.02 in Rain Rain
6:34 AM 35.6 °F 31.7 °F 33.8 °F 93% 29.71 in 5.0 mi WNW 4.6 mph - 0.04 in   Overcast
6:53 AM 37.0 °F 34.5 °F 34.0 °F 89% 29.73 in 5.0 mi West 3.5 mph - 0.04 in   Overcast
7:53 AM 35.1 °F - 33.1 °F 92% 29.72 in 3.0 mi Calm Calm - N/A   Overcast
8:15 AM 35.6 °F 32.8 °F 33.8 °F 93% 29.71 in 2.5 mi WSW 3.5 mph - N/A   Overcast
8:25 AM 35.6 °F 32.8 °F 33.8 °F 93% 29.71 in 3.0 mi WSW 3.5 mph - N/A   Overcast
8:45 AM 35.6 °F - 33.8 °F 93% 29.71 in 2.5 mi Calm Calm - N/A   Overcast
8:53 AM 36.0 °F - 34.0 °F 93% 29.74 in 2.5 mi Calm Calm - N/A   Overcast
9:30 AM 37.4 °F 34.9 °F 35.6 °F 93% 29.72 in 3.0 mi West 3.5 mph - N/A   Mostly Cloudy
9:53 AM 37.9 °F - 36.0 °F 93% 29.74 in 3.0 mi Calm Calm - N/A   Mostly Cloudy
10:53 AM 39.9 °F 37.8 °F 37.0 °F 89% 29.74 in 5.0 mi NW 3.5 mph - N/A   Mostly Cloudy
11:53 AM 44.1 °F 40.1 °F 37.9 °F 79% 29.74 in 10.0 mi North 6.9 mph - N/A   Mostly Cloudy
12:21 PM 44.6 °F 42.2 °F 37.4 °F 76% 29.72 in 10.0 mi North 4.6 mph - N/A   Mostly Cloudy
12:49 PM 44.6 °F 40.7 °F 37.4 °F 76% 29.71 in 10.0 mi Variable 6.9 mph - N/A   Mostly Cloudy
12:53 PM 45.0 °F 40.6 °F 37.9 °F 76% 29.73 in 10.0 mi NNW 8.1 mph - N/A   Mostly Cloudy
1:19 PM 46.4 °F 41.5 °F 39.2 °F 76% 29.70 in 10.0 mi NNE 10.4 mph - N/A   Mostly Cloudy
1:53 PM 45.0 °F 39.7 °F 37.0 °F 74% 29.71 in 10.0 mi North 10.4 mph - N/A   Overcast
2:02 PM 44.6 °F 38.8 °F 37.4 °F 76% 29.69 in 10.0 mi North 11.5 mph - N/A   Overcast
2:48 PM 42.8 °F 35.8 °F 39.2 °F 87% 29.70 in 10.0 mi NNW 13.8 mph - 0.00 in   Overcast
2:53 PM 44.1 °F 37.7 °F 39.0 °F 82% 29.72 in 10.0 mi North 12.7 mph - 0.00 in   Overcast
3:42 PM 42.8 °F 35.4 °F 37.4 °F 81% 29.70 in 10.0 mi North 15.0 mph 24.2 mph N/A   Overcast
3:50 PM 42.8 °F 35.1 °F 37.4 °F 81% 29.71 in 10.0 mi North 16.1 mph 23.0 mph N/A   Overcast
3:53 PM 43.0 °F 35.4 °F 37.9 °F 82% 29.73 in 10.0 mi North 16.1 mph - N/A   Overcast
4:53 PM 43.0 °F 36.0 °F 34.0 °F 71% 29.74 in 10.0 mi NNE 13.8 mph 24.2 mph N/A   Overcast
5:53 PM 43.0 °F 36.8 °F 34.0 °F 71% 29.76 in 10.0 mi NNE 11.5 mph 21.9 mph N/A   Overcast
6:53 PM 42.1 °F 35.7 °F 33.1 °F 70% 29.77 in 10.0 mi North 11.5 mph - N/A   Overcast
7:53 PM 42.1 °F 34.2 °F 32.0 °F 67% 29.79 in 10.0 mi North 16.1 mph 21.9 mph N/A   Overcast
8:31 PM 41.0 °F 32.8 °F 33.8 °F 76% 29.77 in 10.0 mi North 16.1 mph 21.9 mph N/A   Overcast
8:53 PM 39.9 °F 31.8 °F 32.0 °F 73% 29.81 in 10.0 mi North 15.0 mph - N/A   Overcast
9:53 PM 39.9 °F 32.5 °F 30.9 °F 70% 29.81 in 10.0 mi North 12.7 mph - N/A   Overcast
10:53 PM 39.9 °F 32.9 °F 30.9 °F 70% 29.82 in 10.0 mi North 11.5 mph - N/A   Overcast
11:53 PM 39.9 °F 31.8 °F 30.0 °F 68% 29.80 in 10.0 mi North 15.0 mph 26.5 mph N/A   Overcast